Date String (YYYY-MM-DD hh:mm:ss) UTC,Instrument flags,Ambient pressure (hPa),Sample flow (lpm),Bypass flow (lpm),Sample temperature (°C),Ambient temperature (°C),ASC tube jacket temperature (°C),LED temperature (°C),Box temperature (°C),Sample RH (%),Span deviation,Mass concentration (μg/m³),Mass concentration (μg/m³),Mass concentration (μg/m³)
DateTimeUTC,F1_M11,P_M11,Q1_M11,Q2_M11,T1_M11,T2_M11,T3_M11,T4_M11,T5_M11,U1_M11,ZSPAN_M11,X2_M11,X0_M11,X1_M11
2022-10-30 17:00:00,,0828.6,4.99,0.00,25.1,24.0,00.0,33.7,27.0,09.2,0000.0,0003.28,0008.45,0002.81
2022-10-30 17:01:00,,0828.8,5.01,0.00,25.1,24.1,00.0,33.7,27.0,09.3,0000.0,0003.28,0008.40,0002.84
2022-10-30 17:02:00,,0828.9,4.98,0.00,25.1,24.1,00.0,33.8,27.0,09.4,0000.0,0003.26,0008.27,0002.88
2022-10-30 17:03:00,,0828.8,5.01,0.00,25.1,24.1,00.0,33.8,27.1,09.7,0000.0,0003.28,0008.46,0002.93
2022-10-30 17:04:00,,0828.8,5.00,0.00,25.2,24.2,00.0,33.8,27.1,09.8,0000.0,0003.31,0008.18,0002.96
2022-10-30 17:05:00,,0828.9,4.98,0.00,25.2,24.2,00.0,33.8,27.2,09.7,0000.0,0003.32,0008.00,0002.97
2022-10-30 17:06:00,,0828.5,5.01,0.00,25.2,24.2,00.0,33.9,27.2,09.7,0000.0,0003.32,0008.01,0002.99
2022-10-30 17:07:00,,0828.6,4.99,0.00,25.3,24.2,00.0,33.9,27.2,09.3,0000.0,0003.36,0008.33,0003.01
2022-10-30 17:08:00,,0828.8,5.01,0.00,25.3,24.3,00.0,33.9,27.2,09.4,0000.0,0003.40,0008.18,0003.03
2022-10-30 17:09:00,,0828.7,4.99,0.00,25.3,24.3,00.0,33.9,27.2,09.1,0000.0,0003.43,0008.08,0003.05
2022-10-30 17:10:00,,0828.6,5.02,0.00,25.3,24.3,00.0,34.0,27.3,09.0,0000.0,0003.44,0008.04,0003.06
2022-10-30 17:11:00,,0828.5,4.98,0.00,25.4,24.3,00.0,34.0,27.3,08.9,0000.0,0003.45,0008.27,0003.09
2022-10-30 17:12:00,,0828.5,5.00,0.00,25.4,24.4,00.0,34.0,27.3,08.7,0000.0,0003.48,0009.19,0003.11
2022-10-30 17:13:00,,0828.5,5.00,0.00,25.4,24.4,00.0,34.0,27.3,08.7,0000.0,0003.52,0009.39,0003.15
2022-10-30 17:14:00,,0828.5,5.01,0.00,25.4,24.4,00.0,34.1,27.4,09.1,0000.0,0003.51,0009.09,0003.16
2022-10-30 17:15:00,,0828.5,5.00,0.00,25.5,24.4,00.0,34.1,27.4,09.3,0000.0,0003.49,0008.52,0003.17
2022-10-30 17:16:00,,0828.5,5.00,0.00,25.5,24.4,00.0,34.1,27.4,09.5,0000.0,0003.50,0008.51,0003.17
2022-10-30 17:17:00,,0828.5,5.00,0.00,25.5,24.5,00.0,34.1,27.4,09.8,0000.0,0003.52,0008.67,0003.17
2022-10-30 17:18:00,,0828.5,4.99,0.00,25.5,24.5,00.0,34.2,27.5,09.8,0000.0,0003.49,0008.13,0003.16
2022-10-30 17:19:00,,0828.4,5.01,0.00,25.5,24.5,00.0,34.2,27.5,09.7,0000.0,0003.46,0007.82,0003.16
2022-10-30 17:20:00,,0828.5,4.99,0.00,25.6,24.5,00.0,34.2,27.5,09.7,0000.0,0003.45,0007.77,0003.15
2022-10-30 17:21:00,,0828.4,5.00,0.00,25.6,24.5,00.0,34.2,27.5,09.7,0000.0,0003.45,0007.91,0003.14
2022-10-30 17:22:00,,0828.4,4.99,0.00,25.6,24.5,00.0,34.3,27.6,09.6,0000.0,0003.46,0007.75,0003.15
2022-10-30 17:23:00,,0828.5,5.01,0.00,25.6,24.6,00.0,34.3,27.6,09.5,0000.0,0003.45,0006.94,0003.14
2022-10-30 17:24:00,,0828.4,4.99,0.00,25.7,24.6,00.0,34.3,27.6,09.4,0000.0,0003.43,0007.54,0003.14
2022-10-30 17:25:00,,0828.4,5.01,0.00,25.7,24.6,00.0,34.3,27.6,09.3,0000.0,0003.45,0007.61,0003.15
2022-10-30 17:26:00,,0828.3,4.98,0.00,25.7,24.6,00.0,34.3,27.6,09.4,0000.0,0003.49,0007.65,0003.19
2022-10-30 17:27:00,,0828.3,5.01,0.00,25.7,24.6,00.0,34.4,27.7,09.4,0000.0,0003.52,0007.68,0003.23
2022-10-30 17:28:00,,0828.3,4.99,0.00,25.7,24.7,00.0,34.4,27.7,09.5,0000.0,0003.54,0007.63,0003.25
2022-10-30 17:29:00,,0828.3,5.00,0.00,25.8,24.7,00.0,34.4,27.7,09.4,0000.0,0003.55,0007.43,0003.26
2022-10-30 17:30:00,,0828.3,5.01,0.00,25.8,24.7,00.0,34.4,27.7,09.4,0000.0,0003.59,0007.66,0003.28
2022-10-30 17:31:00,,0828.3,4.99,0.00,25.8,24.7,00.0,34.5,27.8,09.4,0000.0,0003.61,0008.26,0003.30
2022-10-30 17:32:00,,0828.3,5.02,0.00,25.8,24.7,00.0,34.5,27.8,09.4,0000.0,0003.61,0009.43,0003.31
2022-10-30 17:33:00,,0828.3,4.99,0.00,25.8,24.7,00.0,34.5,27.8,09.3,0000.0,0003.60,0009.77,0003.32
2022-10-30 17:34:00,,0828.2,5.01,0.00,25.9,24.8,00.0,34.5,27.8,09.5,0000.0,0003.59,0009.51,0003.30
2022-10-30 17:35:00,,0828.2,4.99,0.00,25.9,24.8,00.0,34.5,27.8,09.4,0000.0,0003.58,0009.23,0003.28
2022-10-30 17:36:00,,0828.3,5.01,0.00,25.9,24.8,00.0,34.6,27.9,09.3,0000.0,0003.56,0009.88,0003.25
2022-10-30 17:37:00,,0828.2,4.99,0.00,25.9,24.8,00.0,34.6,27.9,09.3,0000.0,0003.54,0009.99,0003.22
2022-10-30 17:38:00,,0828.3,5.02,0.00,25.9,24.9,00.0,34.6,27.9,09.3,0000.0,0003.53,0010.09,0003.19
2022-10-30 17:39:00,,0828.2,4.98,0.00,26.0,24.9,00.0,34.6,27.9,09.2,0000.0,0003.51,0009.98,0003.18
2022-10-30 17:40:00,,0828.3,5.01,0.00,26.0,24.9,00.0,34.6,27.9,09.1,0000.0,0003.54,0010.40,0003.21
2022-10-30 17:41:00,,0828.2,4.98,0.00,26.0,24.9,00.0,34.7,28.0,09.1,0000.0,0003.59,0010.98,0003.24
2022-10-30 17:42:00,,0828.1,5.02,0.00,26.0,24.9,00.0,34.7,28.0,09.1,0000.0,0003.62,0011.02,0003.26
2022-10-30 17:43:00,,0828.2,4.99,0.00,26.0,25.0,00.0,34.7,28.0,08.9,0000.0,0003.65,0010.03,0003.30
2022-10-30 17:44:00,,0828.2,4.99,0.00,26.1,25.0,00.0,34.7,28.0,08.8,0000.0,0003.71,0010.09,0003.34
2022-10-30 17:45:00,,0828.1,5.02,0.00,26.1,25.0,00.0,34.7,28.1,08.7,0000.0,0003.79,0010.19,0003.42
2022-10-30 17:46:00,,0828.2,4.99,0.00,26.1,25.0,00.0,34.8,28.1,08.7,0000.0,0003.84,0009.99,0003.48
2022-10-30 17:47:00,,0828.1,5.00,0.00,26.1,25.0,00.0,34.8,28.1,08.8,0000.0,0003.90,0009.37,0003.52
2022-10-30 17:48:00,,0828.1,5.00,0.00,26.1,25.1,00.0,34.8,28.1,08.9,0000.0,0003.95,0009.47,0003.58
2022-10-30 17:49:00,,0828.1,4.99,0.00,26.2,25.1,00.0,34.8,28.1,08.6,0000.0,0004.00,0009.36,0003.64
2022-10-30 17:50:00,,0828.1,5.01,0.00,26.2,25.1,00.0,34.8,28.1,08.6,0000.0,0004.06,0009.45,0003.71
2022-10-30 17:51:00,,0828.1,4.99,0.00,26.2,25.1,00.0,34.9,28.2,08.4,0000.0,0004.09,0009.52,0003.77
2022-10-30 17:52:00,,0828.1,5.01,0.00,26.2,25.1,00.0,34.9,28.2,08.3,0000.0,0004.15,0009.21,0003.83
2022-10-30 17:53:00,,0828.1,4.99,0.00,26.2,25.2,00.0,34.9,28.2,08.2,0000.0,0004.24,0008.84,0003.94
2022-10-30 17:54:00,,0828.1,5.01,0.00,26.3,25.2,00.0,34.9,28.2,08.5,0000.0,0004.31,0009.06,0003.99
2022-10-30 17:55:00,,0828.0,4.99,0.00,26.3,25.2,00.0,34.9,28.3,08.4,0000.0,0004.35,0008.86,0004.03
2022-10-30 17:56:00,,0828.1,5.01,0.00,26.3,25.2,00.0,35.0,28.3,08.4,0000.0,0004.40,0008.86,0004.07
2022-10-30 17:57:00,,0828.1,4.99,0.00,26.3,25.2,00.0,35.0,28.3,08.2,0000.0,0004.48,0008.95,0004.15
2022-10-30 17:58:00,,0828.1,5.00,0.00,26.3,25.2,00.0,35.0,28.3,08.2,0000.0,0004.57,0009.00,0004.23
2022-10-30 17:59:00,,0828.0,4.98,0.00,26.4,25.3,00.0,35.0,28.3,08.2,0000.0,0004.64,0009.04,0004.31
